Location: Byhalia Creek
(34.8270°N, 89.8040°W)
Time: 20:34:19
(UTC+00:00)

Cosmos 2266 Rocket - Pass Details

Date: 22 April 2026
Orbit: 932 x 1008 km, 82.9° (Epoch: 21 May)

Event Time Altitude Azimuth Distance (km) Brightness Sun altitude
Rises 08:29:22 0° 352° (N) 3,624 7.5 -30.8°
Reaches altitude 10° 08:31:53 10° 351° (N) 2,667 6.7 -30.4°
Enters shadow 08:37:11 67° 324° (NW) 1,011 4.0 -29.6°
